Regional Weather Roundup
Issued by NWS

Home | Current Version | Previous Version | Graphics & Text | Print | Product List | Glossary On
Versions: 1 2 3 4 5 6 7 8 9 10 11 12 13 14 15 16 17 18 19 20 21 22 23 24 25 26 27 28 29 30 31 32 33 34 35 36 37 38 39 40 41 42 43 44 45 46 47 48 49 50
762
ASUS43 KBIS 120610
RWRND

NORTH DAKOTA REGIONAL WEATHER ROUNDUP
NATIONAL WEATHER SERVICE BISMARCK ND
1200 AM CST FRI FEB 12 2016

NOTE: "FAIR" INDICATES FEW OR NO CLOUDS BELOW 12,000 FEET WITH NO
SIGNIFICANT WEATHER AND/OR OBSTRUCTIONS TO VISIBILITY.


NDZ001>003-009>011-017-120700-
NORTHWEST NORTH DAKOTA

CITY           SKY/WX    TMP DP  RH WIND       PRES   REMARKS
WILLISTON      CLOUDY    20  15  81 N7        30.34R WCI  11
6HR MIN TEMP:  20; 6HR MAX TEMP:  23; 6HR PCP: TRACE;

MINOT          CLOUDY    17   7  64 NW10      30.32R WCI   5
MINOT AFB      MOCLDY    12   6  77 N13       30.33R WCI  -2
$$

NDZ018>021-031>035-040>046-120700-
SOUTHWEST NORTH DAKOTA

CITY           SKY/WX    TMP DP  RH WIND       PRES   REMARKS
BISMARCK       CLOUDY    20  12  71 N6        30.31R WCI  12
6HR MIN TEMP:  18; 6HR MAX TEMP:  24;

DICKINSON      CLOUDY    21  17  84 N7        30.24R WCI  12
GARRISON         N/A     16  13  88 NW6       30.29R WCI   7
6HR MIN TEMP:  12; 6HR MAX TEMP:  19;

HETTINGER ARPT CLOUDY    24  21  88 N5        30.25R FOG     WCI  18
$$

NDZ004>008-012>016-024-026-027-054-120700-
NORTHEAST NORTH DAKOTA

CITY           SKY/WX    TMP DP  RH WIND       PRES   REMARKS
GRAND FORKS    CLEAR      8   0  69 N14       30.32R WCI  -8
GRND FRKS AFB  CLEAR      8   0  70 N10       30.32R WCI  -6
DEVILS LAKE    CLOUDY     1  -2  87 NW9       30.31R WCI -14
$$

NDZ022-023-025-028>030-036>039-047>053-120700-
SOUTHEAST NORTH DAKOTA

CITY           SKY/WX    TMP DP  RH WIND       PRES   REMARKS
FARGO          CLOUDY    13   6  74 N13       30.30R WCI  -2
6HR MIN TEMP:  12; 6HR MAX TEMP:  14;

JAMESTOWN      CLOUDY     9   5  84 NW7       30.28R WCI  -2
$$





USA.gov is the U.S. government's official web portal to all federal, state and local government web resources and services.